Location: Six Mile Lake
(44.9000°N, 79.7170°W)
Time: 17:32:30
(UTC-04:00)

ESTCUBE 1 - Pass Details

Date: 01 July 2022
Orbit: 646 x 657 km, 97.9° (Epoch: 07 August)

Event Time Altitude Azimuth Distance (km) Brightness Sun altitude
Exits shadow 22:28:32 14° 116° (ESE) 1,818 ? -11.3°
Maximum altitude 22:31:32 26° 66° (ENE) 1,276 ? -11.6°
Drops below altitude 10° 22:35:14 10° 10° (N) 2,059 ? -12.0°
Sets 22:37:44 0° 358° (N) 2,976 ? -12.3°
